Weather History for KFUL - March, 2014

Change the Weather History Date:

Sunday, March 23, 2014

  Actual Average Record
Temperature  
Mean Temperature 62 °F 60 °F  
Max Temperature 71 °F 70 °F 92 °F (1953)
Min Temperature 52 °F 50 °F 41 °F (2009)
Degree Days  
Heating Degree Days 3 5  
Month to date heating degree days 36 130  
Since 1 July heating degree days 534 1052  
Cooling Degree Days 0 0  
Month to date cooling degree days 34 8  
Year to date cooling degree days 54 17  
Growing Degree Days 12 (Base 50)    
Moisture  
Dew Point 50 °F    
Average Humidity 68    
Maximum Humidity 83    
Minimum Humidity 53    
Precipitation  
Precipitation 0.00 in 0.03 in 0.50 in (2011)
Month to date precipitation 0.68 1.88  
Year to date precipitation 3.01 8.16  
Since 1 July precipitation 4.32  
Snow  
Snow 0.00 in - - ()
Month to date snowfall 0.0  
Year to date snowfall 0.0  
Since 1 July snowfall 0.0  
Snow Depth 0.00 in    
Sea Level Pressure  
Sea Level Pressure 30.09 in    
Wind  
Wind Speed 3 mph (SW)    
Max Wind Speed 12 mph    
Max Gust Speed 17 mph    
Visibility 10 miles    
Events      
T = Trace of Precipitation, MM = Missing Value Source: NWS Daily Summary

Daily Weather History Graph

Daily Weather History Graph

Search for Another Location

Airport or City:

Trip Planner

Search our weather history database for the weather conditions in past years. The results will help you decide how hot, cold, wet, or windy it might be!

Date:

Astronomy

Mar. 23, 2014 Rise Set
Actual Time 6:51 AM PDT 7:05 PM PDT
Civil Twilight 6:26 AM PDT 7:30 PM PDT
Nautical Twilight 5:57 AM PDT 8:00 PM PDT
Astronomical Twilight 5:27 AM PDT 8:29 PM PDT
Moon 1:14 AM PDT (3/23) 11:50 AM PDT (3/23)
Length of Visible Light 13h 04m
Length of Day
12h 14m
Waning Gibbous, 53% of the Moon is Illuminated
Mar 23
Waning Gibbous
Mar 23
Last Quarter
Mar 30
New
Apr 7
First Quarter
Apr 15
Full

Hourly Weather History & Observations

Time (PDT) Temp. Dew Point Humidity Pressure Visibility Wind Dir Wind Speed Gust Speed Precip Events Conditions
12:53 AM 55.9 °F 48.9 °F 77% 30.10 in 10.0 mi Calm Calm - N/A   Clear
1:53 AM 55.0 °F 48.9 °F 80% 30.10 in 10.0 mi Calm Calm - N/A   Clear
2:53 AM 54.0 °F 48.9 °F 83% 30.09 in 10.0 mi Calm Calm - N/A   Clear
3:53 AM 54.0 °F 48.0 °F 80% 30.06 in 10.0 mi Calm Calm - N/A   Clear
4:53 AM 53.1 °F 48.0 °F 83% 30.08 in 10.0 mi Calm Calm - N/A   Mostly Cloudy
5:53 AM 53.1 °F 48.0 °F 83% 30.09 in 10.0 mi Calm Calm - N/A   Overcast
6:53 AM 53.1 °F 48.0 °F 83% 30.11 in 10.0 mi East 3.5 mph - N/A   Overcast
7:11 AM 54.0 °F 48.0 °F 80% 30.12 in 9.0 mi Calm Calm - N/A   Overcast
7:26 AM 55.0 °F 48.0 °F 77% 30.12 in 9.0 mi East 3.5 mph - N/A   Overcast
7:53 AM 55.9 °F 48.0 °F 75% 30.13 in 9.0 mi East 4.6 mph - N/A   Overcast
8:25 AM 57.0 °F 48.9 °F 74% 30.13 in 9.0 mi East 4.6 mph - N/A   Overcast
8:53 AM 59.0 °F 50.0 °F 72% 30.13 in 9.0 mi ENE 3.5 mph - N/A   Overcast
9:08 AM 60.1 °F 51.1 °F 72% 30.13 in 9.0 mi Calm Calm - N/A   Overcast
9:53 AM 61.0 °F 51.1 °F 70% 30.13 in 8.0 mi South 3.5 mph - N/A   Overcast
10:42 AM 62.1 °F 51.1 °F 67% 30.13 in 8.0 mi Calm Calm - N/A   Overcast
10:53 AM 63.0 °F 51.1 °F 65% 30.13 in 9.0 mi SW 3.5 mph - N/A   Overcast
11:12 AM 63.0 °F 50.0 °F 63% 30.13 in 9.0 mi Variable 3.5 mph - N/A   Overcast
11:53 AM 64.9 °F 51.1 °F 61% 30.12 in 10.0 mi Calm Calm - N/A   Overcast
12:53 PM 66.9 °F 51.1 °F 57% 30.09 in 9.0 mi Variable 4.6 mph - N/A   Mostly Cloudy
1:00 PM 66.9 °F 51.1 °F 57% 30.09 in 9.0 mi Calm Calm - N/A   Mostly Cloudy
1:53 PM 70.0 °F 52.0 °F 53% 30.06 in 9.0 mi Variable 6.9 mph - N/A   Scattered Clouds
2:53 PM 69.1 °F 52.0 °F 54% 30.04 in 10.0 mi SW 8.1 mph - N/A   Clear
3:53 PM 69.1 °F 53.1 °F 57% 30.01 in 10.0 mi SSW 9.2 mph - N/A   Clear
4:53 PM 66.9 °F 53.1 °F 61% 30.01 in 10.0 mi SSW 8.1 mph - N/A   Clear
5:53 PM 66.0 °F 52.0 °F 60% 30.01 in 10.0 mi WNW 8.1 mph - N/A   Clear
6:53 PM 63.0 °F 52.0 °F 67% 30.02 in 10.0 mi WNW 8.1 mph - N/A   Clear
7:53 PM 61.0 °F 52.0 °F 72% 30.04 in 10.0 mi WNW 4.6 mph - N/A   Clear
8:53 PM 60.1 °F 52.0 °F 75% 30.06 in 10.0 mi WNW 3.5 mph - N/A   Clear
9:53 PM 59.0 °F 52.0 °F 78% 30.07 in 10.0 mi West 3.5 mph - N/A   Mostly Cloudy
10:53 PM 59.0 °F 52.0 °F 78% 30.08 in 9.0 mi Calm Calm - N/A   Overcast
11:53 PM 59.0 °F 52.0 °F 78% 30.09 in 9.0 mi Calm Calm - N/A   Overcast